When you browse on this site, cookies collect data to enhance your experience and personalize the content and advertising you see.
Visit our Privacy Policy to learn more. By continuing to use the site, you agree to this use of cookies and data.
  • In Lithuania
  • List of Countries
  • For 7 days
  • Water Temperature
  • Satellite Maps
  • Weather Map
  • Weather Widgets
  • user-avatar
    Login

    Hourly Weather Northallerton

    Today, 19 April, Friday

    Time Temperature Precipitation Wind Pressure Humidity
    00:00 +6°C° 0 mm 0 mps 768 mmHg 91%
    01:00 +7°C° 0 mm 1 mps 768 mmHg 90%
    02:00 +7°C° 0 mm 1 mps 768 mmHg 89%
    03:00 +7°C° 0 mm 1 mps 768 mmHg 89%
    04:00 +8°C° 0 mm 1 mps 768 mmHg 88%
    05:00 +8°C° 0 mm 1 mps 769 mmHg 87%
    06:00 +9°C° 0 mm 1 mps 769 mmHg 85%
    07:00 +11°C° 0 mm 1 mps 769 mmHg 79%
    08:00 +13°C° 0 mm 1 mps 769 mmHg 73%
    09:00 +15°C° 0 mm 2 mps 769 mmHg 68%
    10:00 +16°C° 0 mm 2 mps 769 mmHg 64%
    11:00 +18°C° 0 mm 3 mps 769 mmHg 60%
    12:00 +19°C° 0 mm 3 mps 770 mmHg 56%
    13:00 +19°C° 0 mm 3 mps 769 mmHg 55%
    14:00 +19°C° 0 mm 3 mps 769 mmHg 54%
    15:00 +20°C° 0 mm 3 mps 769 mmHg 54%
    16:00 +18°C° 0 mm 3 mps 769 mmHg 60%
    17:00 +17°C° 0 mm 2 mps 769 mmHg 67%
    18:00 +16°C° 0 mm 2 mps 769 mmHg 73%
    19:00 +14°C° 0 mm 2 mps 770 mmHg 78%
    20:00 +12°C° 0 mm 2 mps 770 mmHg 83%
    21:00 +10°C° 0 mm 1 mps 770 mmHg 87%
    22:00 +9°C° 0 mm 1 mps 770 mmHg 87%
    23:00 +9°C° 0 mm 1 mps 771 mmHg 86%

    Tomorrow, 20 April, Saturday

    Time Temperature Precipitation Wind Pressure Humidity
    00:00 +9°C° 0 mm 1 mps 771 mmHg 86%
    01:00 +8°C° 0 mm 1 mps 770 mmHg 85%
    02:00 +8°C° 0 mm 1 mps 770 mmHg 84%
    03:00 +8°C° 0 mm 1 mps 770 mmHg 83%
    04:00 +9°C° 0 mm 1 mps 770 mmHg 82%
    05:00 +9°C° 0 mm 1 mps 770 mmHg 80%
    06:00 +9°C° 0 mm 1 mps 770 mmHg 79%
    07:00 +12°C° 0 mm 1 mps 770 mmHg 72%
    08:00 +14°C° 0 mm 1 mps 770 mmHg 66%
    09:00 +16°C° 0 mm 1 mps 770 mmHg 60%
    10:00 +18°C° 0 mm 2 mps 770 mmHg 56%
    11:00 +19°C° 0 mm 2 mps 770 mmHg 52%
    12:00 +20°C° 0 mm 2 mps 770 mmHg 48%
    13:00 +21°C° 0 mm 2 mps 769 mmHg 48%
    14:00 +21°C° 0 mm 2 mps 769 mmHg 47%
    15:00 +21°C° 0 mm 2 mps 769 mmHg 46%
    16:00 +20°C° 0 mm 2 mps 768 mmHg 53%
    17:00 +19°C° 0 mm 2 mps 768 mmHg 60%
    18:00 +18°C° 0 mm 2 mps 768 mmHg 66%
    19:00 +16°C° 0 mm 2 mps 768 mmHg 74%
    20:00 +14°C° 0 mm 2 mps 768 mmHg 81%
    21:00 +11°C° 0 mm 3 mps 768 mmHg 89%
    22:00 +12°C° 0 mm 2 mps 767 mmHg 90%
    23:00 +10°C° 0 mm 2 mps 767 mmHg 91%

    Day after tomorrow, 21 April, Sunday

    Time Temperature Precipitation Wind Pressure Humidity
    00:00 +10°C° 0 mm 2 mps 767 mmHg 92%
    01:00 +9°C° 0 mm 2 mps 766 mmHg 92%
    02:00 +9°C° 0 mm 2 mps 766 mmHg 92%
    03:00 +9°C° 0 mm 2 mps 765 mmHg 91%
    04:00 +9°C° 0 mm 2 mps 765 mmHg 90%
    05:00 +9°C° 0 mm 2 mps 764 mmHg 88%
    06:00 +9°C° 0 mm 2 mps 764 mmHg 87%
    07:00 +11°C° 0 mm 3 mps 763 mmHg 81%
    08:00 +13°C° 0 mm 3 mps 763 mmHg 75%
    09:00 +16°C° 0 mm 3 mps 763 mmHg 69%
    10:00 +18°C° 0 mm 4 mps 762 mmHg 65%
    11:00 +19°C° 0 mm 4 mps 762 mmHg 61%
    12:00 +20°C° 0 mm 4 mps 761 mmHg 58%
    13:00 +20°C° 0 mm 4 mps 760 mmHg 56%
    14:00 +21°C° 0 mm 5 mps 760 mmHg 55%
    15:00 +21°C° 0 mm 5 mps 759 mmHg 54%
    16:00 +20°C° 0 mm 4 mps 759 mmHg 59%
    17:00 +19°C° 0 mm 4 mps 758 mmHg 63%
    18:00 +18°C° 0 mm 3 mps 758 mmHg 67%
    19:00 +17°C° 0 mm 3 mps 758 mmHg 71%
    20:00 +14°C° 0 mm 3 mps 758 mmHg 74%
    21:00 +12°C° 0 mm 3 mps 758 mmHg 78%
    22:00 +11°C° 0 mm 3 mps 757 mmHg 80%
    23:00 +10°C° 0 mm 3 mps 757 mmHg 82%

    22 April, Monday

    Time Temperature Precipitation Wind Pressure Humidity
    00:00 +10°C° 0 mm 3 mps 756 mmHg 84%
    01:00 +9°C° 0 mm 3 mps 756 mmHg 87%
    02:00 +9°C° 0 mm 3 mps 755 mmHg 90%
    03:00 +9°C° 0 mm 3 mps 755 mmHg 93%
    04:00 +9°C° 0 mm 3 mps 754 mmHg 92%
    05:00 +8°C° 0 mm 3 mps 754 mmHg 91%
    06:00 +8°C° 0 mm 3 mps 754 mmHg 90%
    07:00 +10°C° 0 mm 3 mps 753 mmHg 83%
    08:00 +12°C° 0 mm 3 mps 753 mmHg 77%
    09:00 +14°C° 0 mm 4 mps 753 mmHg 70%
    10:00 +17°C° 0 mm 4 mps 752 mmHg 66%
    11:00 +17°C° 0 mm 5 mps 752 mmHg 62%
    12:00 +19°C° 0 mm 5 mps 752 mmHg 57%
    13:00 +19°C° 0 mm 5 mps 751 mmHg 56%
    14:00 +19°C° 0 mm 5 mps 751 mmHg 55%
    15:00 +19°C° 0 mm 5 mps 750 mmHg 54%
    16:00 +16°C° 0 mm 5 mps 750 mmHg 60%
    17:00 +15°C° 0 mm 4 mps 750 mmHg 67%
    18:00 +14°C° 0 mm 4 mps 749 mmHg 73%
    19:00 +12°C° 0 mm 3 mps 750 mmHg 79%
    20:00 +10°C° 0 mm 3 mps 750 mmHg 85%
    21:00 +8°C° 0 mm 2 mps 750 mmHg 91%
    22:00 +8°C° 0 mm 2 mps 749 mmHg 91%
    23:00 +8°C° 0 mm 2 mps 749 mmHg 92%

    23 April, Tuesday

    Time Temperature Precipitation Wind Pressure Humidity
    00:00 +8°C° 0 mm 2 mps 749 mmHg 92%
    01:00 +8°C° 0 mm 2 mps 749 mmHg 91%
    02:00 +7°C° 0 mm 2 mps 748 mmHg 90%
    03:00 +7°C° 0 mm 2 mps 748 mmHg 89%
    04:00 +7°C° 0 mm 3 mps 748 mmHg 88%
    05:00 +8°C° 0 mm 3 mps 748 mmHg 88%
    06:00 +8°C° 0 mm 3 mps 748 mmHg 87%
    07:00 +8°C° 0 mm 4 mps 748 mmHg 82%
    08:00 +10°C° 0 mm 5 mps 748 mmHg 77%
    09:00 +13°C° 0 mm 5 mps 747 mmHg 72%
    10:00 +13°C° 0 mm 6 mps 747 mmHg 69%
    11:00 +14°C° 0 mm 6 mps 747 mmHg 67%
    12:00 +15°C° 0 mm 6 mps 747 mmHg 65%
    13:00 +15°C° 0 mm 6 mps 746 mmHg 66%
    14:00 +15°C° 0 mm 6 mps 746 mmHg 67%
    15:00 +14°C° 0 mm 6 mps 745 mmHg 68%
    16:00 +13°C° 0 mm 5 mps 745 mmHg 73%
    17:00 +12°C° 0 mm 5 mps 745 mmHg 77%
    18:00 +11°C° 0 mm 4 mps 745 mmHg 82%
    19:00 +10°C° 0 mm 4 mps 745 mmHg 87%
    20:00 +8°C° 0 mm 3 mps 745 mmHg 92%
    21:00 +7°C° 0 mm 2 mps 745 mmHg 97%
    22:00 +7°C° 0 mm 2 mps 745 mmHg 96%
    23:00 +7°C° 0 mm 2 mps 745 mmHg 95%

    24 April, Wednesday

    Time Temperature Precipitation Wind Pressure Humidity
    00:00 +8°C° 0 mm 2 mps 745 mmHg 94%
    01:00 +7°C° 0 mm 2 mps 745 mmHg 94%
    02:00 +7°C° 0 mm 2 mps 745 mmHg 94%
    03:00 +7°C° 0 mm 2 mps 744 mmHg 95%
    04:00 +7°C° 0 mm 2 mps 744 mmHg 95%
    05:00 +8°C° 0 mm 2 mps 744 mmHg 95%
    06:00 +8°C° 0 mm 2 mps 744 mmHg 95%
    07:00 +10°C° 0 mm 3 mps 744 mmHg 89%
    08:00 +12°C° 0 mm 4 mps 744 mmHg 82%
    09:00 +14°C° 0 mm 5 mps 743 mmHg 75%
    10:00 +14°C° 0.1 mm 5 mps 743 mmHg 76%
    11:00 +15°C° 0.1 mm 6 mps 743 mmHg 77%
    12:00 +15°C° 0.1 mm 6 mps 742 mmHg 78%
    13:00 +15°C° 0.4 mm 6 mps 742 mmHg 82%
    14:00 +14°C° 0.4 mm 5 mps 742 mmHg 85%
    15:00 +14°C° 0.4 mm 5 mps 742 mmHg 89%
    16:00 +14°C° 0.1 mm 5 mps 742 mmHg 86%
    17:00 +13°C° 0.1 mm 5 mps 742 mmHg 84%
    18:00 +13°C° 0.1 mm 5 mps 743 mmHg 81%
    19:00 +11°C° 0 mm 4 mps 743 mmHg 83%
    20:00 +10°C° 0 mm 4 mps 743 mmHg 86%
    21:00 +8°C° 0 mm 4 mps 744 mmHg 88%
    22:00 +8°C° 0 mm 4 mps 744 mmHg 87%
    23:00 +8°C° 0 mm 4 mps 744 mmHg 86%
    Show more